CW3112 Weather Reports


Display with metric or nautical units.
time (UTC)temp
F
wind
direction
speed
MPH
gust
MPH
rain 1hr
in
rain 24hr
in
rain mn
in
humidity
%
barometer
mb
20260506000205 76 78 0.0 1.0 0.00 0.00 0.00 49 1013.3
20260505234204 77 122 0.0 0.0 0.00 0.00 0.00 46 1013.4
20260505233203 77 122 0.0 5.0 0.00 0.00 0.00 44 1013.4
20260505231204 78 196 0.0 3.0 0.00 0.00 0.00 43 1013.6
20260505230204 79 222 0.0 6.0 0.00 0.00 0.00 43 1013.3
20260505224203 80 110 1.0 2.0 0.00 0.00 0.00 42 1013.3
20260505221203 81 342 1.0 3.0 0.00 0.00 0.00 41 1013.2
20260505220204 82 142 0.0 9.0 0.00 0.00 0.00 40 1013.2
20260505214203 83 129 1.0 7.0 0.00 0.00 0.00 39 1013.4
20260505213204 82 134 0.0 3.0 0.00 0.00 0.00 41 1013.7
20260505211203 82 126 1.0 3.0 0.00 0.00 0.00 41 1013.7
20260505210204 82 176 0.0 5.0 0.00 0.00 0.00 41 1013.6
20260505204204 82 128 0.0 3.0 0.00 0.00 0.00 42 1013.9
20260505200204 82 117 0.0 3.0 0.00 0.00 0.00 41 1014.4
20260505194204 81 120 0.0 1.0 0.00 0.00 0.00 44 1014.8
20260505193203 81 195 1.0 8.0 0.00 0.00 0.00 43 1014.7
20260505191203 81 130 0.0 8.0 0.00 0.00 0.00 42 1014.9
20260505190204 81 50 0.0 6.0 0.00 0.00 0.00 45 1015.0
20260505184203 80 116 2.0 6.0 0.00 0.00 0.00 42 1015.0
20260505183204 81 105 1.0 6.0 0.00 0.00 0.00 44 1015.0
20260505180203 80 147 1.0 9.0 0.00 0.00 0.00 43 1015.8
20260505174204 79 77 1.0 9.0 0.00 0.00 0.00 44 1016.1
20260505173203 80 46 2.0 10.0 0.00 0.00 0.00 42 1016.3
20260505171204 80 96 1.0 5.0 0.00 0.00 0.00 45 1016.3
20260505170204 80 135 1.0 7.0 0.00 0.00 0.00 48 1016.2
20260505161204 79 174 1.0 7.0 0.00 0.00 0.00 48 1016.5
20260505160203 79 152 1.0 3.0 0.00 0.00 0.00 47 1016.7
20260505153203 77 121 2.0 5.0 0.00 0.00 0.00 48 1016.5
20260505151203 76 76 1.0 2.0 0.00 0.00 0.00 56 1016.6
20260505150204 74 177 0.0 0.0 0.00 0.00 0.00 62 1016.6
20260505140204 61 177 0.0 0.0 0.00 0.00 0.00 80 1016.3
20260505130203 54 177 0.0 0.0 0.00 0.00 0.00 93 1015.9
20260505123204 53 177 0.0 0.0 0.00 0.00 0.00 93 1015.7
20260505121203 52 177 0.0 0.0 0.00 0.00 0.00 92 1015.8
20260505120204 51 177 0.0 0.0 0.00 0.00 0.00 91 1015.9
20260505114204 51 177 0.0 0.0 0.00 0.00 0.00 91 1015.6
20260505113204 50 177 0.0 0.0 0.00 0.00 0.00 90 1015.4
20260505111204 50 177 0.0 0.0 0.00 0.00 0.00 89 1015.2
20260505110204 50 177 0.0 0.0 0.00 0.00 0.00 89 1015.0
20260505101203 51 177 0.0 0.0 0.00 0.00 0.00 88 1015.1
20260505100204 51 177 0.0 0.0 0.00 0.00 0.00 88 1015.2
20260505093204 51 177 0.0 0.0 0.00 0.00 0.00 88 1014.9
20260505091204 51 177 0.0 0.0 0.00 0.00 0.00 87 1015.3
20260505090204 52 177 0.0 0.0 0.00 0.00 0.00 87 1015.3
20260505084203 52 177 0.0 0.0 0.00 0.00 0.00 86 1015.3
20260505083203 52 177 0.0 0.0 0.00 0.00 0.00 86 1015.2
20260505081205 53 177 0.0 0.0 0.00 0.00 0.00 85 1015.2
20260505074204 53 177 0.0 0.0 0.00 0.00 0.00 84 1015.0
20260505073204 53 177 0.0 0.0 0.00 0.00 0.00 84 1015.2
20260505071205 54 177 0.0 0.0 0.00 0.00 0.00 83 1015.1
20260505070203 54 177 0.0 0.0 0.00 0.00 0.00 83 1015.2
20260505064203 54 177 0.0 0.0 0.00 0.00 0.00 83 1015.1
20260505061204 55 177 0.0 0.0 0.00 0.00 0.00 82 1015.5
20260505054203 55 177 0.0 0.0 0.00 0.00 0.00 82 1015.4
20260505051204 56 177 0.0 0.0 0.00 0.00 0.00 80 1015.5
20260505050204 57 177 0.0 0.0 0.00 0.00 0.00 80 1015.4
20260505041204 58 177 0.0 0.0 0.00 0.00 0.00 76 1015.3
20260505040204 59 177 0.0 0.0 0.00 0.00 0.00 75 1015.3
20260505034204 59 177 0.0 0.0 0.00 0.00 0.00 76 1015.2
20260505033203 60 177 0.0 0.0 0.00 0.00 0.00 74 1015.4
20260505030204 61 177 0.0 0.0 0.00 0.00 0.00 72 1015.4
20260505024204 62 177 0.0 0.0 0.00 0.00 0.00 71 1015.3
20260505023204 62 177 0.0 0.0 0.00 0.00 0.00 70 1015.2
20260505021204 63 177 0.0 0.0 0.00 0.00 0.00 68 1015.2
20260505013204 65 177 0.0 0.0 0.00 0.00 0.00 61 1014.9
20260505011204 67 177 0.0 0.0 0.00 0.00 0.00 59 1014.8
20260505010203 67 177 0.0 0.0 0.00 0.00 0.00 56 1014.6
20260505004203 69 177 0.0 0.0 0.00 0.00 0.00 52 1014.5
20260505003204 70 177 0.0 0.0 0.00 0.00 0.00 50 1014.4